sat.trackr.live / text

‹ back to catalog

JAM-E JAM 1

NORAD 67757 · 2026-028B

PAYLOAD ACTIVE UNKNOWN

§ Identity

Operator
Country
IRAN
Launch date
2026-02-12
Launch site
TYMSC
Launch vehicle
Mass (kg)
RCS (m²)

Purposes: comms

External: N2YO · Heavens-Above · Gunter

§ Orbital elements

Epoch: 2026-05-25T03:54:23.823936Z

Period
1,435.98 min
Inclination
0.3087°
Eccentricity
0.0000904
Mean motion
1.00279969 rev/d
Perigee alt
35,780.5 km
Apogee alt
35,788.1 km
Semi-major
42,162.4 km
B*
0.0000e+0
RAAN
296.4981°
Arg perigee
234.1563°
Mean anomaly
164.7687°
Rev number
89

§ Raw data

JAM-E JAM 11 67757U 26028B   26145.16277574  .00000153  00000+0  00000+0 0  99942 67757   0.3087 296.4981 0000904 234.1563 164.7687  1.00279969   897

JSON: /api/v1/satellites/67757 · /tle

For live sub-satellite position, see the globe view (requires WebGL).

§ Visibility from observer

Set your observer location to see the next 7 days of passes ≥ 10°. The values pass through the URL so the page stays shareable.

No JS? Fill the form by hand. The geolocation button needs JavaScript.